Theta_e
288 287 286 286 285 285 284 285 285 284 284 285 285 285 286 286 287 285 287 287 286 286 285 285 283 283 283 282 282 283 282 283 283 284 284 283 284 284 284 283 283 283 282 282 281 281 281 281 281 281 281 281 281 280 281 281 281 281 281 281 280 280 280 282 282 283 282 283 287 287 289 291 292 292 293 294 295 296 297 296 297 297 298 299 300
286 285 285 285 284 284 284 284 285 283 283 284 285 285 285 285 286 286 286 286 286 285 285 285 284 283 282 282 282 282 282 281 281 282 283 284 284 284 283 283 283 282 282 282 281 281 280 280 281 280 280 280 280 281 281 281 280 280 280 279 281 279 279 281 281 283 282 283 281 282 284 287 290 291 292 293 294 295 296 296 296 297 297 298 299
285 285 285 284 284 284 283 284 284 284 284 284 285 285 284 284 285 285 285 285 285 285 285 284 284 285 283 283 282 282 283 282 282 283 283 283 283 283 283 282 282 282 282 281 281 281 280 280 280 280 280 280 279 279 280 279 280 279 279 278 278 280 280 281 281 284 280 281 281 280 280 282 287 289 292 293 294 295 296 296 296 296 297 298 299
284 284 284 284 284 284 283 283 283 284 284 283 283 284 284 285 284 284 285 285 285 285 286 285 284 284 284 283 283 282 281 283 283 283 283 282 282 282 282 282 282 281 281 281 280 280 280 280 280 280 279 280 279 278 278 278 279 279 279 279 279 276 278 279 282 281 281 280 276 281 281 281 278 283 287 290 294 295 295 295 296 297 299 301 301
286 285 284 284 283 283 283 284 283 283 284 284 283 284 284 284 284 284 284 284 284 286 286 285 284 284 283 282 282 281 281 281 280 280 281 281 280 281 280 281 281 281 281 280 280 280 280 280 279 279 279 279 279 278 278 278 279 279 279 278 278 277 276 278 279 281 280 281 279 277 277 278 279 282 285 285 290 291 293 295 295 296 296 296 298
287 286 285 284 284 284 284 283 283 283 283 284 284 284 284 284 284 284 284 284 284 284 285 284 283 282 280 279 278 278 278 278 278 278 279 278 279 280 280 280 280 280 280 280 280 280 279 279 279 279 278 278 279 278 278 278 278 278 278 278 277 278 277 276 276 280 280 280 281 281 280 278 278 280 280 277 286 289 291 294 294 295 296 296 296
287 287 286 284 284 284 283 283 283 283 283 284 284 284 284 284 284 284 283 283 284 283 283 284 282 281 280 279 279 278 278 279 279 279 279 279 280 279 279 280 280 279 279 279 279 279 279 279 279 278 278 278 279 278 278 278 278 278 279 278 278 278 277 275 275 276 278 279 279 280 280 281 281 278 276 279 278 284 289 290 292 294 295 295 296
287 286 286 285 285 284 283 283 283 283 284 284 283 283 283 283 283 283 283 284 283 283 282 283 281 280 280 279 279 278 278 278 279 278 279 279 279 279 278 278 279 279 278 278 279 278 278 278 278 278 278 278 278 278 277 278 278 278 278 278 278 277 277 275 275 276 275 276 279 278 278 280 281 281 282 281 280 278 281 288 291 293 294 295 295
288 287 286 286 285 284 284 284 284 284 283 283 283 283 283 283 283 283 282 284 283 283 282 281 282 281 280 279 278 280 279 279 279 279 279 278 277 277 277 277 278 278 278 278 278 278 278 278 278 277 277 277 277 277 277 278 277 277 277 277 276 276 277 276 275 275 275 275 276 276 277 277 279 280 281 281 279 279 279 282 285 291 293 294 295
287 287 287 286 286 285 285 285 283 283 283 284 283 283 283 282 282 282 281 281 282 281 283 281 281 282 280 279 278 278 278 278 278 277 277 277 276 276 276 276 277 277 277 277 277 277 277 277 277 277 276 277 277 277 277 277 277 277 276 276 276 276 276 276 275 275 275 275 275 275 274 275 275 276 277 277 278 280 278 280 283 286 287 291 295
287 287 287 287 286 286 285 283 283 283 283 283 283 283 282 282 282 281 281 281 281 281 280 280 279 279 279 278 278 277 277 277 276 276 276 276 275 275 276 276 276 276 276 276 276 276 276 277 276 276 276 277 276 276 276 276 276 276 276 276 276 275 275 275 275 276 275 275 275 275 274 275 274 274 276 277 279 280 281 282 284 288 288 289 293
287 286 286 285 284 284 284 283 283 282 282 282 282 282 282 281 281 281 280 280 280 280 279 279 279 279 279 278 278 277 277 276 276 275 275 275 275 275 275 275 275 276 276 275 275 276 276 275 276 276 275 275 275 276 276 276 276 276 276 275 275 275 275 275 275 274 274 274 275 275 275 275 275 275 276 278 279 280 282 282 283 286 288 290 293
286 285 285 284 284 283 282 283 282 281 281 282 282 281 281 281 280 280 280 279 279 279 279 279 278 278 278 278 277 277 277 276 276 275 275 275 275 274 274 274 274 274 274 274 275 275 275 274 274 275 275 275 275 275 275 276 275 275 275 275 275 275 275 275 274 274 274 273 274 275 275 275 275 277 277 277 278 280 281 281 283 286 285 287 291
285 285 285 284 284 284 283 283 282 282 282 282 282 281 281 281 280 280 280 279 279 278 278 278 278 278 278 277 277 277 276 276 275 275 275 275 275 274 274 274 273 273 273 274 274 274 274 274 275 274 275 275 275 275 275 275 275 275 275 274 274 275 275 275 274 274 274 274 274 273 274 274 275 276 276 277 278 279 279 280 281 284 286 286 290
284 284 284 284 284 284 283 283 282 282 282 281 282 281 281 281 280 280 279 279 278 278 278 278 278 277 277 277 276 276 276 275 275 276 275 275 275 274 274 274 273 273 273 274 274 274 274 274 274 274 274 274 275 275 275 275 275 275 274 274 275 275 275 275 274 274 273 273 273 273 273 274 274 275 276 277 278 279 279 281 282 280 282 285 286
283 283 284 284 284 283 283 282 282 282 281 282 281 281 281 281 280 280 280 279 278 278 278 278 277 277 277 276 276 276 276 276 276 275 275 274 274 273 273 273 273 273 273 273 273 274 273 273 274 274 274 274 274 274 274 274 274 274 274 274 274 275 274 274 274 274 273 273 273 273 273 272 274 274 276 278 279 279 279 280 281 281 280 279 285
283 283 283 283 282 283 283 282 282 282 281 281 281 281 281 280 279 279 279 278 278 278 278 277 277 276 276 275 275 275 275 274 274 274 274 274 274 273 273 273 273 273 273 273 273 273 273 273 273 273 273 274 274 274 274 274 274 274 274 273 273 274 274 273 273 273 273 273 272 273 272 272 273 274 275 276 278 280 281 283 284 284 283 281 282
283 283 283 283 283 283 282 282 282 282 282 281 281 281 281 280 279 279 278 277 277 277 277 276 276 276 275 275 275 275 274 274 274 273 273 273 273 273 272 272 272 272 272 273 273 273 273 273 273 273 273 273 273 273 273 273 273 273 273 273 273 273 273 273 273 272 272 272 272 272 273 273 274 274 275 277 278 278 279 281 282 284 285 284 284
282 281 281 282 282 282 282 282 282 282 282 281 281 280 280 280 279 279 278 278 277 277 277 277 276 275 275 275 274 274 274 273 273 273 273 272 272 272 271 272 272 272 272 272 272 272 272 272 272 272 272 272 273 273 273 272 273 272 272 272 272 272 272 271 272 272 272 272 272 271 272 272 273 273 274 275 276 277 278 280 283 285 286 285 285
282 282 282 282 282 282 281 281 281 281 281 280 280 279 279 279 279 278 278 277 276 276 276 275 275 275 274 274 274 273 273 273 272 272 271 271 271 271 271 271 271 272 271 271 271 271 271 271 272 272 272 272 272 272 272 271 271 271 271 271 271 271 271 270 271 272 272 271 271 271 272 272 273 273 274 275 276 277 278 279 282 284 286 287 288
282 282 282 281 281 281 281 281 281 281 281 280 279 278 278 278 278 277 276 276 275 275 275 275 274 274 273 273 272 272 272 272 271 271 271 270 271 271 271 271 271 271 271 271 271 271 271 271 271 271 271 270 270 270 271 271 271 270 271 270 270 270 270 270 271 271 271 272 272 271 272 273 274 273 273 274 275 277 279 281 283 284 286 288 288
283 282 282 281 281 280 280 280 280 280 279 278 278 278 277 277 277 276 276 275 275 274 274 274 274 273 272 272 272 272 271 271 270 270 270 270 270 270 270 270 270 270 271 270 270 270 270 270 270 269 270 270 269 270 270 270 270 269 269 270 269 270 269 269 270 270 270 271 272 272 272 273 274 273 274 275 276 278 279 280 282 284 286 287 290
283 282 281 281 280 280 280 280 279 279 279 278 277 277 277 276 276 275 275 275 274 274 274 273 273 272 271 271 271 270 270 270 269 269 269 269 270 270 270 269 269 270 270 270 270 269 269 269 269 269 269 269 269 269 269 269 269 269 268 269 269 269 269 269 269 269 270 270 270 271 272 273 274 273 274 275 276 277 278 279 280 284 285 287 289
281 280 280 280 279 279 279 279 279 279 278 277 277 277 276 276 275 275 274 274 273 273 273 272 271 271 271 270 270 269 269 269 268 269 269 269 269 269 270 269 269 269 269 269 269 268 268 268 268 268 268 268 268 269 268 269 269 268 268 268 268 269 269 269 269 269 269 270 270 270 270 271 273 273 273 274 276 279 281 282 283 284 286 287 289
279 279 279 279 279 278 279 279 279 279 278 277 277 276 275 275 274 274 273 273 272 272 271 271 270 270 269 269 268 269 268 268 268 268 268 268 268 268 269 268 268 268 268 267 267 268 267 267 267 267 267 267 267 268 268 268 268 269 268 268 268 268 269 269 269 269 271 270 270 270 270 271 271 271 273 275 275 277 279 282 283 285 286 288 289
280 279 278 278 279 279 279 279 279 279 278 277 276 275 275 274 274 273 272 272 271 271 271 270 270 268 268 268 268 268 268 268 267 268 268 268 268 268 268 268 267 266 266 266 266 266 266 266 266 267 267 267 267 268 268 268 268 268 268 268 269 268 269 269 269 270 270 270 270 270 271 271 271 271 272 273 276 278 279 280 282 285 287 288 288
279 279 279 278 278 278 279 279 279 278 278 277 276 275 274 273 272 272 272 271 271 270 270 269 268 268 267 267 267 267 267 267 267 267 267 268 267 267 267 266 266 266 265 265 265 265 266 266 266 267 266 267 268 268 268 268 268 268 268 268 268 269 269 269 270 270 270 271 271 271 271 271 271 271 271 272 273 274 277 279 281 284 287 287 287
278 278 278 278 279 279 278 279 278 278 277 276 275 274 273 273 272 271 271 270 270 269 269 268 267 267 267 267 267 267 267 267 267 267 267 267 266 266 265 265 265 265 264 264 265 265 265 266 266 267 268 268 268 268 268 268 268 268 268 268 269 269 269 269 270 270 270 271 271 271 271 271 271 272 272 272 273 273 274 276 279 283 286 287 287
278 278 278 278 278 278 278 278 278 277 276 275 274 273 272 272 271 270 270 269 269 268 267 267 267 266 266 267 266 266 266 266 266 266 265 265 265 264 264 264 264 264 264 264 265 265 265 266 267 267 268 268 268 267 267 267 268 269 270 270 270 270 270 270 270 270 271 271 271 271 272 272 272 274 276 276 276 276 275 276 278 282 285 286 286
278 278 279 279 279 279 278 278 277 276 276 274 273 272 271 270 270 270 269 269 268 267 266 266 266 266 266 266 265 265 265 265 265 264 264 263 263 263 263 262 263 263 264 264 265 265 266 266 266 266 267 266 266 267 268 272 273 270 270 271 272 272 273 273 272 271 272 272 272 272 273 275 276 276 277 278 279 280 280 278 278 279 281 284 285
280 279 279 279 279 278 278 277 277 276 276 274 272 271 270 270 269 268 268 268 267 266 265 265 265 265 265 265 264 264 264 263 263 262 262 261 262 261 261 261 262 262 263 264 265 265 266 266 266 265 265 265 266 266 271 273 274 275 273 272 272 272 273 273 274 273 273 273 273 272 273 275 276 277 276 278 280 281 281 281 282 283 283 283 284
281 280 279 278 278 278 277 277 277 276 275 273 271 270 269 269 268 268 267 267 265 265 264 265 264 264 264 264 263 263 262 262 261 261 260 260 260 260 260 261 261 262 263 264 264 265 265 265 265 265 265 265 265 269 272 273 275 276 276 273 273 273 274 275 275 274 275 274 274 274 274 275 275 275 275 276 278 280 281 282 283 284 285 286 287
284 281 279 279 278 278 278 278 277 276 274 273 271 269 269 268 267 267 266 265 264 264 264 263 264 263 263 263 262 261 261 260 260 260 259 259 259 260 260 260 261 262 263 263 264 264 264 264 264 264 264 265 265 269 272 273 275 276 277 277 274 275 275 275 275 275 275 275 275 274 274 275 275 277 277 276 277 278 281 282 283 284 285 287 288
284 282 280 279 279 279 279 278 277 276 274 271 271 270 269 268 267 266 265 264 264 264 263 263 263 263 262 262 261 260 259 259 259 259 259 259 259 259 260 261 261 262 262 262 263 263 263 263 263 263 264 264 265 268 272 274 275 277 278 278 275 275 275 275 276 276 276 276 276 275 275 275 275 276 276 276 277 277 279 280 281 283 284 285 286
284 281 280 279 279 278 278 277 276 274 271 270 269 268 267 266 265 264 264 264 263 263 262 262 262 262 261 260 260 259 258 258 258 258 258 258 258 259 260 261 261 262 261 261 262 262 262 262 263 263 263 263 264 270 273 275 276 277 278 278 275 275 275 275 275 276 276 277 277 276 275 275 275 275 276 276 277 278 279 279 280 280 283 284 285
284 282 280 279 278 278 277 276 274 271 269 269 267 266 265 264 265 264 264 263 263 262 262 262 261 260 260 259 258 258 257 257 257 257 257 258 258 259 259 260 261 261 261 262 262 262 261 261 262 263 263 263 265 271 273 275 276 277 278 275 274 274 273 274 274 276 276 277 277 277 276 275 275 275 277 279 279 279 279 279 279 280 282 284 285
284 282 281 280 279 278 277 274 271 270 268 267 266 266 265 264 263 263 263 263 262 261 261 261 260 259 259 258 258 257 256 256 256 256 256 257 258 258 259 260 260 260 260 261 261 261 262 262 262 263 263 264 265 269 273 275 276 277 276 273 273 273 273 273 274 275 276 277 277 277 277 276 276 276 278 280 280 281 279 279 279 279 281 282 283
281 279 278 278 277 276 273 271 269 268 267 266 265 265 264 263 263 263 262 262 261 261 261 260 259 259 258 258 257 256 255 255 255 255 256 257 258 259 259 260 259 259 259 260 260 261 262 263 263 264 265 265 266 270 273 274 276 277 276 273 272 272 272 273 274 275 276 277 277 279 279 277 276 276 279 280 281 280 279 280 280 280 280 280 282
279 278 277 276 274 272 270 269 268 266 265 265 264 264 263 263 263 262 262 261 261 261 260 259 259 259 258 257 256 256 255 255 255 256 256 256 257 258 259 260 260 259 259 260 260 261 262 264 265 265 268 268 267 269 272 274 276 276 274 273 272 272 272 272 273 274 275 276 277 278 279 279 278 278 280 281 281 280 279 279 279 280 280 280 282
277 277 276 274 271 269 268 267 266 265 264 264 263 263 262 262 262 262 261 261 261 261 260 259 258 257 257 256 256 255 255 254 255 255 256 257 258 258 258 258 259 259 259 260 260 261 263 264 266 266 267 267 267 268 270 274 275 276 276 273 272 271 271 272 273 274 274 276 277 277 278 280 281 281 282 282 282 282 281 281 280 279 279 279 283
275 274 274 270 269 268 267 266 265 264 263 263 263 263 262 262 261 261 261 261 261 260 259 258 257 256 256 255 255 255 254 254 254 255 256 257 258 258 258 258 258 258 259 260 261 263 264 265 266 267 267 267 268 268 270 274 275 275 276 275 272 272 272 273 273 273 274 274 275 276 278 279 281 281 282 282 282 282 283 282 282 281 281 282 284
273 272 270 269 269 268 266 265 264 263 263 263 263 262 262 261 261 261 261 261 259 259 258 256 256 256 255 254 254 254 254 253 254 255 255 256 257 257 257 257 258 258 258 260 263 263 264 265 266 267 267 267 269 271 269 272 274 275 276 276 273 272 273 273 272 273 273 274 275 276 277 279 281 281 282 282 283 283 283 282 282 284 285 285 284
269 269 270 269 267 266 264 263 263 263 263 263 263 262 261 261 261 261 260 259 258 257 256 256 255 254 254 253 253 253 253 252 253 254 254 255 256 256 256 257 257 257 259 261 262 263 263 265 266 266 267 268 268 269 272 270 273 275 276 276 276 275 276 274 272 272 272 273 275 276 277 279 281 282 282 283 283 284 283 282 284 285 285 286 285
270 270 269 269 266 265 263 263 263 263 263 263 263 262 261 261 262 260 259 258 257 256 255 254 253 253 253 253 253 252 253 252 253 254 254 254 255 255 256 256 257 258 260 261 262 263 264 264 264 265 266 267 268 268 270 272 272 274 275 276 276 276 276 273 273 272 273 273 274 275 276 279 281 282 283 283 284 284 283 284 285 285 285 286 285
269 268 269 267 265 263 262 262 262 262 262 262 263 262 261 261 260 259 258 257 256 254 253 253 253 252 252 252 252 252 252 253 253 254 254 254 254 254 255 256 257 258 260 261 261 263 264 264 264 265 265 266 267 268 268 270 273 274 274 275 275 275 275 276 272 272 273 274 276 279 280 280 281 282 283 284 284 283 284 284 285 285 285 285 285
268 267 266 266 264 263 262 261 261 261 261 261 262 262 261 261 259 259 258 256 254 253 252 252 252 252 252 252 252 254 254 254 253 254 253 254 254 254 255 256 257 259 260 261 261 264 264 264 264 265 265 266 267 267 268 268 271 272 272 273 274 274 273 274 274 273 275 277 277 278 279 279 280 281 281 282 282 282 283 284 284 285 284 285 285
267 267 265 264 263 262 261 260 260 260 260 260 260 262 261 259 258 257 256 254 253 252 252 252 251 252 251 252 253 254 254 253 253 253 254 254 254 255 255 257 259 259 260 261 263 264 264 264 264 264 265 265 266 267 267 268 270 269 269 269 269 269 272 272 271 271 273 273 274 276 276 278 280 281 282 283 283 284 283 283 284 285 285 285 285
267 266 265 263 262 262 261 260 260 260 260 260 260 259 258 258 257 256 254 253 252 252 252 251 251 252 252 252 253 254 254 253 253 253 253 253 254 255 256 258 259 260 260 262 264 264 264 264 264 264 264 264 265 266 267 268 269 269 269 269 268 268 268 269 269 270 271 272 273 277 278 278 279 280 281 282 283 283 283 283 284 284 285 285 285
266 265 264 263 263 262 261 260 260 259 259 259 258 258 257 257 256 254 253 252 252 253 252 251 252 252 253 253 252 251 252 253 253 253 253 253 253 254 257 259 262 263 264 264 264 264 265 265 265 265 264 264 265 266 267 273 271 273 270 268 267 267 268 269 271 274 270 270 270 272 276 278 279 280 281 282 283 283 283 283 284 285 285 285 285
266 265 264 263 263 262 261 260 259 259 258 258 257 256 256 256 254 253 253 252 252 251 251 251 252 252 252 252 252 251 251 252 252 252 252 253 257 262 262 262 262 266 268 269 269 265 266 266 266 266 266 266 266 267 273 274 273 273 273 273 272 272 272 271 273 272 269 266 266 267 268 270 271 274 278 282 283 283 283 283 284 285 285 285 285
265 264 263 263 262 262 261 260 259 258 257 257 256 256 256 255 254 253 253 252 252 252 252 251 251 251 253 252 251 252 252 252 252 252 251 252 253 254 260 264 265 266 267 268 268 269 269 270 267 265 267 271 272 272 273 273 273 272 272 272 271 270 271 272 272 267 264 263 263 264 265 266 268 269 270 271 277 283 284 284 284 285 285 285 285
Wind_Speed
8 9 10 11 11 10 10 9 10 9 10 10 10 9 9 8 7 8 6 5 5 5 4 4 4 3 2 3 3 3 3 4 5 5 5 5 6 6 6 5 6 5 4 4 4 5 5 6 6 7 7 7 8 8 9 10 10 10 11 11 13 14 11 9 9 11 14 14 11 13 14 14 16 18 19 18 17 15 15 16 16 15 16 16 16
5 9 10 9 10 11 10 10 11 13 10 11 12 11 10 9 9 9 6 6 7 6 5 4 3 3 2 3 3 3 4 4 4 4 5 5 6 6 5 5 6 5 4 4 5 5 6 6 6 7 7 7 8 9 10 10 11 10 9 11 9 11 11 7 9 9 9 9 14 16 14 11 14 18 19 17 17 16 17 17 17 17 18 17 16
10 13 11 12 12 13 12 11 11 13 13 13 12 11 11 10 9 9 8 7 7 6 5 4 3 3 4 3 2 3 3 5 5 5 5 5 4 4 5 6 6 5 4 5 5 5 6 7 7 7 8 8 9 9 9 10 9 10 10 10 12 10 11 9 9 6 9 9 11 13 14 17 10 10 12 16 16 16 15 16 17 17 19 17 15
17 17 17 15 15 14 13 13 13 11 12 11 11 12 10 9 10 9 8 7 7 6 6 5 5 4 4 3 3 3 5 4 5 5 6 5 6 5 6 6 6 6 5 5 5 5 6 7 7 7 8 8 9 10 10 11 10 10 10 11 11 15 11 9 7 8 8 6 9 4 10 9 18 11 5 9 12 14 14 16 15 15 15 15 13
18 15 15 15 15 18 18 15 12 13 13 13 12 11 8 12 11 11 8 8 7 6 7 5 4 3 2 1 2 4 4 4 5 5 5 5 6 6 7 7 7 7 6 6 7 7 7 7 8 8 9 9 9 10 10 10 10 10 11 11 11 11 15 12 10 8 10 8 8 9 9 9 12 15 16 16 12 14 18 18 17 17 18 18 14
17 19 19 18 18 16 14 14 15 14 14 13 12 11 12 11 10 9 8 7 7 7 7 5 5 5 4 3 2 3 4 4 5 5 4 5 6 6 7 7 6 6 6 6 6 7 7 7 8 8 9 9 9 9 10 11 11 11 10 10 12 11 12 15 14 9 10 12 13 13 12 12 13 12 12 18 8 11 17 16 17 17 15 15 16
13 13 13 16 18 17 18 17 18 17 15 12 12 12 12 11 11 10 9 7 7 8 7 6 5 4 6 5 4 5 5 5 4 5 5 6 5 7 7 6 6 6 7 6 7 6 7 7 8 8 9 9 9 10 11 12 11 11 9 10 11 11 11 14 15 13 11 12 12 15 18 17 16 14 15 15 21 15 12 16 19 19 19 19 18
14 16 17 19 19 21 23 22 17 17 14 13 12 10 13 12 12 11 8 7 7 7 8 6 6 5 5 5 5 6 7 7 5 6 6 6 7 7 6 6 6 6 7 7 7 7 7 8 8 9 9 10 10 10 11 11 11 11 11 12 11 11 12 13 15 13 12 13 8 12 15 16 18 20 22 19 18 21 19 15 18 20 19 19 21
15 15 17 19 21 22 19 18 17 14 14 14 12 10 10 11 11 10 9 8 7 9 8 7 6 5 5 5 6 5 6 6 6 6 6 6 8 7 7 7 6 6 6 7 7 7 7 9 9 9 10 11 10 11 12 12 14 14 13 12 12 12 12 13 14 14 13 15 11 14 13 14 14 16 17 17 18 18 22 20 20 17 18 19 18
12 17 16 17 18 17 17 14 14 15 12 11 11 11 11 10 11 11 10 8 8 8 7 8 7 5 5 6 7 6 5 5 5 6 6 6 7 8 7 6 5 5 6 6 8 7 8 9 9 10 11 11 11 12 14 14 14 14 14 14 14 15 13 13 15 14 14 15 14 14 15 14 14 15 16 16 18 21 22 21 19 19 19 15 13
12 14 14 14 11 12 13 17 16 13 12 12 12 12 11 11 11 12 10 8 8 8 8 8 7 6 6 6 7 7 6 5 5 6 5 5 7 7 6 5 5 6 5 6 7 8 8 9 9 10 11 12 12 13 13 13 13 13 14 15 16 17 15 15 17 17 15 16 17 15 17 16 14 15 14 14 16 17 17 21 22 19 20 21 16
11 10 11 10 10 12 12 16 16 15 12 14 12 11 10 11 11 12 9 9 8 7 7 7 6 6 6 6 7 7 6 5 6 7 6 7 8 8 6 6 6 6 6 7 6 7 8 9 10 12 12 12 13 12 12 13 13 13 13 13 14 15 16 15 15 17 17 16 21 16 18 17 18 18 17 15 16 17 17 20 19 17 17 18 15
9 10 9 10 13 14 16 16 14 16 18 15 14 12 11 12 12 12 11 9 8 7 7 7 6 6 6 6 6 6 6 6 7 7 6 7 6 6 6 7 7 8 7 7 8 8 9 10 11 11 11 11 13 13 14 15 14 14 14 16 16 17 15 16 15 17 18 17 19 18 17 19 18 17 17 18 18 18 18 20 20 16 19 19 15
9 9 11 12 14 14 15 15 17 16 16 15 14 13 10 11 12 12 11 9 8 7 7 6 6 6 6 6 5 5 5 6 6 6 6 6 6 6 6 7 8 9 10 10 8 9 9 11 12 13 14 15 14 15 15 14 14 14 15 16 17 16 15 18 18 19 20 24 19 20 18 20 19 17 18 18 18 18 17 18 17 14 17 21 16
8 10 12 14 14 14 14 15 15 15 16 14 13 13 11 11 11 12 10 8 8 8 6 7 5 5 5 5 5 4 5 5 6 6 6 6 5 6 7 7 8 10 9 10 10 11 12 11 12 13 13 13 14 15 14 15 15 15 15 17 17 15 16 19 19 20 21 23 22 21 20 19 19 18 18 19 18 19 19 18 15 16 17 18 19
9 10 11 12 11 11 12 13 14 13 15 14 15 13 12 12 12 11 11 10 8 8 7 6 6 5 5 6 5 5 5 5 5 5 6 5 6 6 8 8 9 10 11 11 12 11 12 13 13 13 14 14 14 15 15 14 15 15 15 15 18 13 16 21 20 21 23 23 23 21 20 22 19 18 18 18 18 19 18 18 16 16 19 20 15
9 11 11 9 9 11 13 13 13 14 14 17 16 14 14 13 12 11 9 8 9 8 7 6 5 5 5 5 4 4 5 6 5 6 7 6 6 7 7 9 10 10 11 11 13 12 12 12 13 14 14 14 14 14 14 15 15 15 15 16 18 18 18 20 19 20 21 20 20 22 21 20 18 17 18 19 19 17 16 16 15 17 15 19 17
7 9 8 10 12 14 13 13 16 17 17 16 15 13 13 13 13 12 10 10 8 7 7 6 5 5 5 4 4 4 4 5 5 6 6 6 7 7 8 9 10 10 11 11 12 14 13 14 13 14 14 14 15 14 14 15 15 15 16 18 14 17 18 18 18 19 20 18 19 19 17 17 17 17 18 18 18 18 18 17 16 16 17 19 19
8 10 10 10 12 14 14 15 14 14 14 15 13 14 12 11 11 12 12 11 10 6 6 5 5 4 3 4 4 4 4 4 4 6 6 7 8 8 9 10 11 11 11 12 13 13 13 13 13 15 14 15 15 15 14 14 14 16 14 14 15 16 17 18 17 16 16 16 18 20 18 19 17 19 18 18 18 17 17 17 16 15 18 20 22
10 10 11 12 13 14 15 15 16 17 15 14 14 11 13 12 12 10 8 8 7 7 6 5 5 4 3 3 3 3 4 4 5 6 6 7 8 9 10 11 11 11 12 13 13 13 14 15 14 14 15 15 15 15 14 14 13 13 13 14 15 16 18 18 17 15 14 15 17 19 18 17 16 17 17 18 18 19 19 19 17 16 18 18 18
10 11 12 12 12 11 11 12 11 11 11 12 12 14 13 11 12 11 12 9 8 6 6 5 4 4 3 4 4 3 4 4 6 6 7 7 8 9 9 10 11 11 11 13 13 14 14 14 15 15 16 16 16 16 14 13 14 14 15 16 16 16 17 16 16 18 16 16 18 18 18 18 17 19 17 17 18 18 18 16 15 17 18 17 17
11 11 11 10 9 9 9 9 10 12 12 14 10 11 13 13 12 10 9 7 8 6 6 5 4 3 4 3 4 3 3 5 6 6 7 7 8 8 9 10 11 12 11 12 14 13 13 15 15 16 16 16 16 16 15 13 15 17 17 15 13 17 17 18 16 17 16 14 16 18 18 19 17 19 19 19 17 16 17 16 16 16 16 16 16
10 10 8 8 9 10 12 14 15 16 13 11 11 13 12 12 11 9 9 7 7 6 5 4 3 3 3 3 3 3 4 6 6 6 6 7 8 9 9 10 11 11 11 11 13 14 15 15 15 15 16 16 16 15 14 15 16 18 18 18 17 17 19 18 18 17 17 16 18 18 18 17 15 18 19 19 19 20 18 17 18 17 17 16 15
7 5 6 7 8 9 11 13 14 15 14 14 11 11 12 10 10 8 9 8 7 6 5 4 3 3 3 3 3 4 5 6 5 5 7 7 8 9 9 10 11 11 12 12 12 13 14 15 16 16 15 16 16 15 16 16 18 17 19 20 18 18 18 18 18 18 17 16 18 19 17 17 18 20 19 18 17 17 16 15 17 18 17 18 15
6 8 8 8 10 13 15 15 15 15 11 11 11 12 10 10 9 9 7 7 6 6 5 4 4 3 3 3 3 4 5 6 6 5 7 8 8 9 9 10 11 11 11 12 12 12 14 14 14 15 17 16 16 17 18 18 17 18 19 19 20 18 18 18 18 18 17 18 18 18 19 17 17 19 19 17 17 19 17 16 16 16 16 16 12
9 7 8 13 14 12 10 13 13 14 14 11 10 11 10 10 9 8 8 7 7 5 5 4 4 3 3 4 4 4 5 5 5 6 7 7 8 8 9 10 10 12 12 12 12 12 12 15 16 16 16 16 16 18 19 19 19 18 18 18 18 19 18 18 18 17 17 17 17 19 18 17 18 18 18 18 16 17 15 16 18 17 15 12 11
11 11 10 7 8 14 15 14 14 13 13 10 10 11 10 9 9 8 7 7 7 6 5 5 4 4 3 3 4 4 4 4 4 5 6 7 8 9 10 10 10 11 12 13 13 14 13 14 16 16 15 16 19 18 18 19 19 20 19 18 19 18 19 18 17 18 17 17 18 18 18 17 18 19 19 19 18 19 15 15 16 18 14 10 9
7 8 12 15 15 13 13 15 14 14 12 9 8 9 10 10 10 8 8 7 5 6 5 4 4 4 3 3 3 4 4 4 4 5 6 7 8 8 10 10 10 11 12 13 14 15 15 14 14 15 16 16 17 18 18 19 19 19 19 19 17 19 18 19 19 18 18 18 18 19 19 19 18 17 18 19 19 19 18 16 15 16 13 11 10
11 14 14 14 14 15 16 15 15 14 13 13 11 10 9 8 8 8 7 7 7 6 5 5 4 4 3 3 3 3 3 4 4 5 6 7 8 9 10 10 10 11 10 12 13 15 16 16 14 15 16 15 16 16 14 15 16 19 19 19 20 19 20 18 20 18 19 18 19 17 19 18 19 24 28 26 24 21 15 13 16 16 13 9 8
14 15 16 15 16 14 15 15 15 16 14 12 11 11 10 10 9 8 8 7 7 6 6 5 4 4 3 2 3 3 3 3 4 5 6 7 8 9 9 10 11 11 11 12 13 14 15 15 16 16 15 15 15 13 18 28 26 20 20 18 17 18 18 18 17 17 19 19 20 18 16 24 26 27 29 30 30 30 31 23 16 15 15 11 7
14 14 14 15 14 13 13 16 18 18 18 15 13 11 11 9 9 9 8 7 6 6 6 5 4 3 3 2 2 2 2 3 4 5 6 7 9 8 9 10 10 10 11 12 12 14 14 13 16 16 17 15 15 14 28 29 30 32 24 20 19 18 18 19 18 17 18 19 18 17 17 19 21 23 22 30 30 31 30 30 32 31 25 20 11
14 15 13 13 14 16 18 19 19 18 17 14 12 11 10 10 9 9 8 7 7 6 6 5 4 3 3 2 2 2 3 4 4 6 7 7 8 8 9 9 9 10 10 10 12 13 13 15 14 16 16 16 16 23 30 31 32 32 29 21 18 16 16 14 18 16 17 16 16 15 14 13 12 14 17 18 23 27 28 29 29 30 30 33 29
14 13 14 16 18 19 20 19 16 17 17 14 12 12 11 11 10 9 8 8 7 7 6 6 4 4 3 2 1 1 3 4 5 6 7 7 8 8 8 9 9 9 10 10 13 13 14 14 15 16 17 17 17 24 30 32 31 31 31 27 17 17 15 16 16 18 17 16 16 16 14 12 13 19 18 18 18 18 21 25 25 27 28 26 24
11 12 15 16 14 13 14 17 18 15 11 11 11 12 10 9 9 9 9 8 8 7 6 5 5 4 3 2 1 1 3 4 5 6 7 7 7 8 8 8 9 9 10 11 11 13 13 15 15 16 17 17 18 23 30 31 31 31 31 28 17 17 16 16 17 16 15 15 16 16 15 13 13 14 13 16 16 17 14 13 14 13 13 16 19
12 11 11 13 15 15 14 14 14 15 14 13 12 12 11 10 10 9 8 8 7 6 6 5 5 4 3 2 1 1 3 5 6 6 7 7 7 7 8 8 8 9 11 10 12 12 13 12 14 14 15 16 15 27 30 32 31 31 31 28 14 15 15 16 16 17 17 17 17 17 16 16 15 13 12 16 16 15 12 12 13 14 13 12 12
12 13 13 14 15 18 20 18 14 14 11 13 12 11 11 10 8 8 8 7 7 6 5 5 4 3 3 2 1 1 3 5 6 6 6 7 7 7 8 8 8 10 9 9 10 10 12 13 13 13 14 16 16 28 30 31 32 30 32 18 14 15 16 16 16 16 15 14 16 16 15 16 15 16 17 23 22 17 13 14 13 14 14 13 12
10 11 14 16 16 15 14 15 15 13 16 14 11 11 10 10 9 7 7 7 6 5 5 5 4 4 3 2 1 2 4 5 5 6 6 7 8 8 8 7 9 9 11 10 10 10 11 12 13 13 14 15 15 22 29 31 30 31 25 15 16 15 15 16 16 16 15 14 15 16 15 13 14 15 19 22 23 24 16 16 15 14 13 12 13
5 4 6 9 10 12 14 17 15 15 14 10 11 11 11 10 9 8 7 7 6 5 5 5 4 4 3 2 1 2 4 5 5 5 6 7 7 6 7 7 9 11 11 10 10 10 10 11 15 16 13 16 16 22 30 29 30 29 26 18 14 15 15 16 16 16 14 14 15 24 22 17 16 16 22 23 23 21 15 13 11 13 14 13 13
9 12 13 13 14 17 17 17 18 18 14 14 13 12 11 9 9 8 7 6 6 5 5 5 4 4 3 2 2 3 4 5 6 6 5 6 6 6 7 7 8 9 10 10 10 10 11 12 13 14 20 20 15 19 27 28 29 30 25 16 15 14 16 16 15 16 14 14 14 15 22 22 19 20 25 23 24 20 15 14 12 11 13 14 13
6 7 13 15 17 18 18 19 20 17 13 14 14 13 12 11 8 8 7 6 6 6 5 5 4 4 3 1 2 3 5 5 6 6 5 5 5 6 7 8 8 7 9 9 9 9 14 13 12 12 11 13 15 15 19 29 28 29 30 20 15 15 16 16 16 14 14 13 13 14 15 20 25 26 26 26 25 26 17 13 12 12 13 15 10
10 11 13 17 20 24 25 22 19 17 13 14 13 13 11 8 9 8 6 6 6 6 5 5 4 4 2 2 3 4 6 6 6 6 5 5 4 6 7 7 8 8 8 10 11 12 12 12 11 10 11 13 12 18 19 28 29 30 31 27 14 15 15 15 15 15 14 15 14 13 12 16 21 23 25 25 24 25 24 15 13 13 13 13 13
7 12 17 16 14 16 17 15 11 13 12 11 13 14 10 10 8 7 6 7 7 6 5 5 4 3 2 2 4 5 6 5 5 5 5 5 4 4 6 7 7 8 11 12 12 10 12 11 9 12 11 13 16 22 19 24 29 31 31 32 19 16 18 17 16 15 15 15 15 14 13 16 20 21 23 24 24 23 25 17 15 20 23 24 17
17 15 15 18 15 14 12 12 11 10 10 11 14 16 11 7 8 8 7 7 6 6 5 5 4 2 2 4 4 4 4 3 3 3 4 5 5 6 7 7 8 9 10 12 12 12 12 10 12 11 11 11 13 14 22 20 28 31 32 31 31 24 28 19 15 16 16 16 15 15 15 22 22 22 22 23 23 24 20 15 22 23 24 25 20
17 19 18 17 17 14 11 10 9 8 8 8 17 14 9 10 9 8 8 7 6 5 5 5 3 2 2 3 3 3 4 2 3 3 3 4 6 6 6 5 7 8 8 10 10 11 10 13 15 16 14 13 13 11 17 26 27 32 30 31 30 31 30 19 17 15 15 16 15 15 15 23 24 24 24 24 24 22 15 19 22 23 23 20 12
20 17 15 16 19 16 13 11 8 9 7 7 5 14 14 11 9 9 9 8 7 6 5 4 2 2 3 3 3 2 1 1 2 2 4 5 7 6 7 6 6 7 8 9 11 10 11 13 14 15 17 18 18 15 17 23 33 31 32 30 31 32 30 28 19 15 16 15 20 28 29 27 25 25 25 25 21 23 26 22 22 23 21 11 11
15 14 16 17 18 16 13 14 10 8 8 7 6 10 18 11 10 9 9 8 8 7 6 5 3 2 2 1 1 1 1 0 1 2 3 2 4 4 5 7 6 7 8 8 10 9 12 12 13 13 13 15 16 17 16 17 16 25 26 30 32 30 29 29 26 19 25 30 30 29 30 28 24 19 14 11 10 10 18 22 21 19 11 10 8
23 16 17 19 20 15 15 15 15 10 8 7 8 6 7 9 10 9 9 8 8 8 6 4 3 2 1 1 2 2 1 0 1 3 3 3 2 4 6 5 6 7 8 9 9 11 10 12 12 12 13 15 13 14 15 14 14 18 18 21 22 21 26 24 17 16 19 18 22 22 17 19 18 21 21 20 16 15 14 12 10 10 9 9 8
14 15 21 20 18 19 17 15 14 12 10 9 7 7 7 9 9 9 9 9 9 7 6 6 5 3 1 2 3 4 4 2 3 4 5 6 5 4 4 5 6 7 7 8 9 9 10 10 12 13 15 14 13 16 17 17 20 19 19 19 19 18 17 16 18 18 18 18 18 19 16 10 10 10 10 9 8 8 9 9 9 8 8 9 9
18 20 26 22 17 17 16 14 12 11 10 9 8 7 8 10 9 9 9 10 9 8 6 6 4 4 3 1 3 3 4 5 5 4 1 2 4 6 6 7 8 8 8 9 8 10 10 10 11 12 14 12 12 14 17 25 24 29 24 22 19 18 18 17 21 29 20 15 13 14 10 7 6 8 8 8 6 7 7 8 9 8 7 6 7
15 16 13 16 14 26 19 13 11 11 10 10 9 8 8 8 8 8 9 11 10 8 8 6 5 5 4 3 3 3 3 5 6 9 10 6 4 7 7 7 7 15 18 18 16 11 12 11 11 11 12 13 14 17 29 32 32 32 33 33 30 30 29 24 26 30 19 11 12 11 12 12 12 12 11 7 7 6 6 6 7 8 8 8 7
21 17 15 18 14 19 19 16 11 12 11 10 10 9 9 8 8 8 9 10 10 8 7 6 6 5 4 3 3 3 2 4 6 5 4 9 13 7 5 7 12 16 17 20 18 19 21 21 16 11 13 23 27 29 30 30 31 31 32 32 32 30 30 31 28 20 12 12 12 12 12 12 12 10 11 14 13 8 6 5 5 6 6 7 7
Wind_Direction
200 199 192 195 192 191 185 179 179 175 173 170 163 169 173 173 165 185 180 170 175 185 198 202 208 214 219 216 223 230 251 254 246 250 245 247 249 249 252 271 276 276 304 323 321 311 303 299 299 304 309 310 307 304 306 305 304 302 302 300 296 292 284 273 274 285 289 288 277 272 279 272 269 267 263 264 264 266 266 265 263 262 261 260 258
164 200 199 189 194 193 186 185 175 176 187 172 174 176 175 174 177 181 176 177 183 189 193 193 196 195 204 232 240 243 258 253 252 237 239 240 242 240 251 265 263 272 292 305 304 304 302 300 299 301 310 305 299 297 300 299 300 297 298 297 281 280 283 270 281 289 285 300 317 314 297 276 259 256 255 258 259 258 259 260 261 260 260 259 259
201 210 199 197 194 195 189 191 191 186 176 181 179 171 177 176 182 181 177 178 188 188 183 196 198 199 196 227 221 263 240 255 260 261 267 267 252 249 269 274 274 283 295 306 305 304 301 301 302 305 305 306 303 301 299 298 296 295 294 292 300 283 275 278 271 275 292 306 300 301 300 320 301 261 254 251 245 250 254 256 256 256 256 255 257
212 204 202 195 196 196 194 195 191 186 182 181 179 179 176 180 180 179 180 181 185 188 188 192 185 196 201 214 244 240 267 282 272 274 276 282 281 285 282 277 281 289 296 296 292 288 292 295 299 302 302 304 301 300 298 293 293 292 292 289 289 295 288 283 267 268 268 301 304 264 304 311 302 293 321 281 270 263 254 255 256 258 260 263 265
215 207 205 198 197 201 199 194 182 191 189 186 182 182 178 182 182 178 177 183 183 184 187 174 181 192 199 262 272 276 267 258 270 264 251 261 279 279 277 280 283 287 295 295 293 294 294 293 293 294 292 291 289 286 286 283 283 280 280 278 276 279 292 290 281 263 259 242 245 292 290 265 244 283 316 290 276 277 266 258 257 258 262 263 262
214 209 203 200 202 201 199 193 194 195 193 191 184 183 178 176 174 175 170 176 182 184 177 170 188 186 187 192 217 222 246 224 230 243 249 245 251 257 257 253 256 262 264 267 264 273 275 274 277 282 284 283 281 280 280 281 275 272 269 273 275 273 280 292 288 274 258 252 240 240 243 263 293 298 311 289 301 268 280 280 273 262 262 266 268
219 215 203 202 205 200 202 199 197 195 197 180 185 184 181 175 172 171 173 176 176 178 174 175 182 189 194 204 216 227 249 251 233 238 253 258 260 264 271 269 264 274 275 268 276 275 278 278 278 279 279 280 281 280 277 274 274 270 271 270 274 280 278 278 280 287 284 256 246 245 249 255 264 279 273 288 286 280 253 260 258 256 254 254 256
209 209 206 206 201 200 202 200 195 199 182 182 185 180 181 176 170 172 171 173 174 169 175 178 182 189 194 206 214 223 230 252 258 265 259 268 271 270 273 272 271 268 277 279 277 279 281 281 279 281 281 279 278 274 274 276 275 272 269 272 275 271 271 269 279 280 276 280 257 256 256 256 256 254 255 264 277 285 281 266 269 267 262 261 262
205 207 208 205 204 206 204 198 200 188 186 187 184 180 181 175 167 164 172 171 173 172 173 186 188 187 194 204 223 229 233 247 252 256 268 264 268 268 263 268 267 264 265 275 275 276 276 279 280 278 277 277 275 273 271 272 273 277 277 275 271 272 266 267 270 270 270 271 279 269 266 261 259 258 262 263 263 272 273 273 270 268 266 258 252
210 215 212 210 209 206 202 197 189 195 188 184 182 180 178 167 167 167 175 176 171 175 177 182 190 192 195 208 223 236 238 251 253 258 255 256 263 266 266 266 274 277 273 267 274 270 273 274 276 275 275 276 274 273 274 274 273 273 273 273 272 270 266 262 260 264 265 268 264 270 271 268 261 255 252 252 261 257 267 273 268 270 267 261 254
212 215 214 213 205 200 187 196 194 183 189 183 185 182 172 172 166 172 180 171 171 173 174 185 185 188 200 209 219 235 241 250 266 266 264 268 271 269 268 275 277 277 278 275 269 276 271 271 272 274 275 277 277 277 274 276 277 277 276 273 269 266 265 263 262 261 263 265 266 262 262 260 258 256 250 249 249 257 258 260 264 257 260 266 255
214 210 212 197 187 194 188 198 189 188 182 192 187 179 176 172 164 171 175 176 174 173 176 187 182 194 203 210 220 229 236 241 253 267 272 276 276 282 290 298 295 288 280 282 276 274 277 276 275 278 275 273 274 275 275 277 279 278 276 273 271 267 263 262 260 261 259 264 267 263 259 260 258 256 258 258 257 260 264 268 268 271 269 264 267
209 208 196 192 195 191 195 196 182 188 195 188 183 179 174 171 168 166 181 177 177 173 181 186 185 196 203 212 220 229 232 238 249 258 263 266 273 285 304 303 303 299 289 282 278 274 279 282 283 280 282 279 280 280 279 277 276 276 274 273 269 266 262 259 261 259 264 263 269 265 261 258 255 256 256 252 253 257 260 265 265 268 272 273 269
210 202 200 199 199 197 196 191 193 192 191 187 181 179 177 171 169 168 179 171 170 173 182 187 195 202 206 212 221 226 237 242 246 254 260 262 269 285 292 293 292 284 287 282 279 279 272 272 275 276 275 278 279 279 279 279 276 275 275 271 269 265 264 260 260 262 266 268 263 265 259 257 255 255 255 255 253 254 258 259 273 272 268 271 271
207 205 205 204 201 195 193 194 194 192 187 183 183 181 171 176 167 169 168 174 168 180 181 192 199 203 208 216 221 227 237 246 250 254 262 271 280 291 288 287 284 286 283 285 285 279 277 274 272 274 275 274 277 278 278 277 274 273 271 269 269 265 265 270 269 267 268 267 263 260 258 257 256 254 252 252 252 252 254 258 264 273 273 268 270
207 213 214 211 200 193 194 194 195 189 185 184 184 178 179 175 169 171 172 170 174 178 187 189 204 199 208 218 223 227 246 251 260 263 270 274 288 290 289 284 282 286 286 286 285 283 283 283 280 276 277 276 275 276 277 276 276 273 272 268 270 268 268 271 272 272 268 267 266 262 257 257 256 256 256 253 250 251 254 259 261 263 267 270 268
209 214 213 201 192 200 198 192 188 185 184 189 185 178 175 168 170 168 170 162 172 178 183 192 198 204 217 219 224 233 238 252 264 280 281 287 291 289 284 283 284 283 286 288 289 287 285 287 290 288 284 282 280 278 278 278 276 274 274 273 277 280 277 274 276 271 271 270 267 262 257 259 256 254 251 250 252 255 255 255 252 255 258 263 268
218 219 212 200 198 199 195 193 190 188 187 182 181 176 177 173 166 166 161 172 180 176 184 188 199 212 220 223 231 232 248 260 274 282 287 294 294 290 288 288 286 289 290 290 291 293 292 290 289 289 288 287 288 286 283 281 277 278 278 280 277 279 277 280 278 272 271 269 266 264 259 260 258 254 252 251 252 253 256 256 258 259 255 257 259
217 214 207 203 203 202 194 192 188 185 182 180 174 172 170 167 163 160 167 170 168 171 178 185 195 208 213 230 236 249 258 269 280 279 286 291 291 289 288 287 292 293 293 294 295 295 295 295 295 293 293 290 289 288 287 285 281 284 280 280 281 281 280 280 279 275 272 269 267 266 263 260 258 258 257 256 256 256 256 258 257 255 256 254 255
222 213 212 210 206 198 191 185 182 181 176 177 173 164 166 161 154 153 144 146 151 169 176 187 197 201 225 237 249 259 274 287 285 285 289 289 288 290 291 293 292 296 293 293 293 294 296 299 297 295 294 294 292 291 288 284 282 278 279 283 285 285 281 279 279 275 274 271 270 268 265 263 261 260 257 255 253 249 246 247 249 254 259 254 248
222 216 215 211 203 193 189 182 177 169 169 169 173 170 160 154 155 154 156 162 167 174 171 184 185 200 218 241 259 268 284 283 277 278 283 285 287 288 290 291 296 291 293 294 295 297 298 297 298 295 294 293 291 290 289 288 289 284 285 284 286 282 280 279 279 279 273 272 271 269 267 265 265 262 257 255 254 254 257 256 255 255 255 253 243
221 220 214 205 192 181 172 164 162 166 172 173 173 162 159 161 155 153 153 161 161 169 173 177 184 196 218 245 254 271 279 272 274 283 288 289 290 292 294 298 293 292 293 295 297 298 297 296 295 292 292 291 290 289 290 290 290 292 289 291 285 284 282 280 280 278 276 275 277 273 270 269 265 266 265 260 255 253 250 254 256 254 251 250 239
224 219 209 197 185 179 175 174 176 178 176 168 167 167 160 156 150 157 155 161 159 162 165 170 180 199 232 244 261 275 274 273 283 291 291 294 294 295 297 297 295 296 296 296 299 299 298 296 294 292 294 293 290 290 291 293 293 294 289 289 285 283 280 279 277 275 275 274 273 275 277 275 270 266 262 259 257 256 253 252 252 253 256 251 241
234 209 198 185 170 166 168 177 179 181 177 178 169 157 154 155 154 150 157 154 154 157 160 166 183 211 227 246 261 266 267 274 284 286 287 292 295 295 299 294 295 299 301 301 298 297 297 297 296 294 292 292 292 292 294 295 293 290 290 284 283 282 278 276 275 276 276 275 274 273 272 276 275 267 262 262 260 259 250 241 240 247 250 253 244
221 212 190 170 172 180 189 185 185 183 175 171 168 162 156 153 153 153 149 150 147 153 157 170 188 212 232 240 256 262 263 273 280 284 290 296 300 301 299 299 301 300 300 301 298 299 297 296 294 294 295 293 292 295 299 296 292 292 285 285 281 279 276 275 274 273 273 273 272 272 274 273 273 274 273 263 255 255 259 263 259 251 246 242 238
222 202 177 192 195 193 186 188 186 184 180 168 163 158 153 149 153 145 144 146 150 150 161 171 185 208 227 235 245 257 267 276 283 289 294 299 299 298 302 300 299 299 300 298 295 295 295 294 292 293 292 291 295 299 296 295 293 288 287 282 280 278 275 274 272 270 270 268 269 269 270 270 271 271 268 272 276 271 269 267 266 257 242 230 227
216 204 202 191 191 198 196 189 189 182 178 172 163 155 150 147 145 146 142 144 149 152 163 168 192 208 223 231 242 256 270 278 289 298 303 305 304 303 301 299 302 299 297 297 296 295 292 294 294 294 291 299 303 298 297 292 290 287 282 281 279 277 276 272 267 266 261 260 263 264 264 263 265 265 269 270 270 273 274 272 273 270 242 227 224
208 194 197 202 203 195 192 190 183 182 175 168 161 154 151 151 148 147 143 142 147 152 161 174 183 204 211 226 244 260 272 288 299 305 306 305 302 298 299 297 298 298 296 294 296 295 294 292 294 300 303 303 299 301 298 296 292 288 286 279 277 275 271 270 267 263 262 261 257 262 260 260 256 258 260 261 260 259 265 271 269 270 254 232 228
204 211 207 205 197 196 193 186 184 173 173 167 158 151 142 136 138 141 142 148 147 148 163 170 185 197 208 222 251 265 283 298 313 315 308 304 301 298 296 296 294 293 291 291 293 292 294 295 296 301 303 301 303 297 297 293 294 292 289 286 281 272 268 265 269 262 262 256 259 253 257 251 246 248 252 255 256 252 252 259 263 269 266 235 232
214 214 211 206 204 195 189 183 179 180 175 167 159 154 150 145 146 144 144 145 142 154 159 175 184 188 202 230 255 273 289 323 323 311 306 301 297 295 293 292 291 289 290 291 292 296 299 302 306 306 307 304 298 297 291 293 293 292 291 290 288 285 279 272 264 262 263 257 259 249 247 249 254 256 257 260 259 256 252 250 257 264 273 270 232
221 218 213 206 200 191 183 184 186 182 180 171 162 151 143 141 141 144 146 147 143 153 165 172 180 184 206 233 248 266 314 321 315 307 297 293 294 292 290 287 286 288 288 290 298 303 305 305 308 307 308 304 301 295 295 294 296 295 295 291 288 283 277 275 266 262 260 261 255 241 242 243 251 263 265 265 263 259 255 252 251 253 256 259 261
222 219 209 198 192 189 188 190 187 182 175 167 157 152 146 148 147 149 145 140 143 156 165 171 176 187 207 218 237 285 320 312 308 296 292 290 287 285 285 287 287 291 292 294 302 305 307 310 308 308 304 299 297 298 296 298 298 298 297 293 288 284 280 273 269 259 261 253 251 242 240 244 238 246 260 263 262 257 255 253 250 250 251 252 248
226 213 203 198 195 193 192 189 180 178 176 170 150 144 154 150 146 145 133 144 153 161 164 167 173 187 194 194 240 311 318 305 296 290 288 285 281 283 285 289 290 294 298 303 307 306 307 307 306 302 300 298 294 297 298 299 301 302 302 300 293 286 281 279 274 266 255 252 254 252 248 236 250 250 260 258 263 266 260 257 258 259 261 258 252
228 211 204 201 194 192 190 186 180 172 156 141 154 144 137 134 130 134 143 150 157 160 161 168 171 182 174 191 195 3 305 293 291 287 285 285 283 283 289 289 294 300 303 304 303 304 305 305 303 301 299 295 293 294 299 302 305 305 305 305 298 295 291 289 290 285 269 257 256 253 249 247 251 252 250 257 254 255 258 258 256 256 255 259 258
225 213 202 193 187 183 174 168 168 158 151 146 137 132 122 126 137 141 149 150 154 153 160 167 168 163 169 181 139 325 292 288 286 283 284 282 284 288 294 302 306 307 310 307 308 308 304 298 296 294 292 289 288 297 304 306 308 310 310 310 299 300 301 299 296 291 285 270 261 254 248 251 251 241 245 254 259 257 247 244 253 259 259 254 251
224 207 198 182 179 178 177 175 155 145 149 146 135 134 127 132 137 139 146 150 149 155 160 164 159 166 173 143 129 268 278 280 283 285 285 289 292 297 301 305 305 305 300 300 299 297 295 297 294 292 291 290 290 301 306 309 312 312 313 313 309 306 303 297 292 291 284 277 265 254 250 250 249 252 250 253 252 256 253 251 250 254 256 252 249
225 197 196 187 182 172 159 144 148 151 142 140 135 129 124 129 137 143 144 150 152 157 162 159 160 171 155 135 160 246 267 276 277 284 287 291 300 303 307 312 308 306 307 307 299 296 293 292 297 298 293 292 289 301 309 313 314 314 317 316 311 304 300 299 298 296 292 283 269 256 250 247 248 252 253 255 255 254 248 247 248 249 249 252 254
187 159 147 144 141 135 140 146 143 143 130 132 128 129 131 134 141 144 148 150 158 162 158 159 167 165 146 147 184 246 260 272 276 275 284 292 292 296 303 311 310 309 308 301 298 294 292 295 303 303 298 298 302 306 311 315 316 318 321 317 309 307 303 303 300 295 292 283 274 266 257 252 253 253 256 256 257 259 267 262 248 239 244 249 252
164 157 149 148 147 145 143 141 143 139 141 130 132 134 133 134 140 146 148 152 163 162 158 164 160 144 131 144 221 244 254 266 273 275 282 286 298 305 303 302 300 300 297 296 295 296 301 305 305 299 307 312 298 303 309 316 320 320 321 316 314 309 305 301 300 297 293 289 278 266 260 257 254 255 256 257 255 254 254 254 258 262 256 251 248
139 144 148 139 133 129 136 147 149 140 140 143 140 142 142 139 140 142 150 161 161 156 153 146 140 129 124 170 245 241 249 253 267 283 280 281 296 301 308 310 302 298 298 298 293 296 310 311 303 303 305 304 303 300 310 320 322 321 323 321 314 307 304 303 302 299 299 294 286 276 261 260 262 261 259 257 257 254 249 244 244 248 254 258 262
150 142 136 131 146 146 150 149 140 139 145 146 145 142 139 139 141 146 158 153 140 139 142 145 128 119 128 206 248 240 249 260 259 272 282 292 301 309 309 304 303 300 296 301 306 309 298 294 296 304 307 310 307 317 319 323 324 324 323 323 311 310 308 307 307 303 299 299 295 285 277 252 262 264 260 258 255 255 254 248 240 244 245 255 260
114 131 129 136 141 141 116 109 129 137 137 145 146 143 135 139 144 147 142 131 132 139 139 131 122 110 147 226 229 250 253 251 270 277 296 304 307 307 300 304 300 302 309 309 315 298 302 296 304 314 309 314 320 324 324 322 323 324 325 325 323 315 314 311 306 302 299 298 292 291 289 276 267 266 264 258 255 252 252 252 250 249 251 252 252
134 138 149 142 144 145 138 135 142 143 141 148 137 127 130 135 140 142 130 131 134 135 133 118 110 127 184 225 237 244 258 259 272 283 301 314 319 319 313 305 304 305 311 316 308 305 303 311 326 323 319 318 319 319 325 327 328 328 327 327 324 321 318 316 307 303 303 299 295 290 285 284 279 272 268 262 256 254 251 247 249 250 250 251 250
148 152 154 149 137 120 129 137 141 141 138 149 147 132 140 137 134 131 132 130 129 130 121 109 114 156 207 234 236 247 254 261 280 303 316 334 331 320 310 303 305 303 300 302 307 308 308 329 328 330 332 332 329 321 329 332 332 331 332 331 329 327 324 319 312 303 301 295 295 291 284 282 282 280 276 266 258 256 251 249 251 252 253 251 241
159 159 156 155 143 143 133 133 137 135 138 136 152 135 137 136 138 139 141 139 137 126 114 108 127 196 221 231 245 237 236 248 300 328 359 347 331 326 315 312 304 303 305 302 308 305 326 330 327 328 330 331 334 333 331 330 330 332 333 333 333 331 326 324 316 306 298 295 292 291 290 288 283 277 275 274 264 254 253 254 249 248 250 248 243
124 134 135 136 107 107 126 131 134 142 140 151 145 151 135 142 135 141 139 137 131 121 113 122 162 216 245 230 207 180 175 146 349 1 18 328 301 304 300 301 299 304 304 300 300 315 334 330 328 326 325 322 324 331 329 323 323 336 335 336 336 334 329 324 319 310 308 302 295 288 284 282 281 276 271 260 251 241 241 247 251 247 241 244 229
161 150 133 135 143 140 146 141 142 155 149 150 144 142 124 130 137 139 132 129 122 119 120 131 177 213 256 313 41 61 73 158 13 22 11 337 304 299 298 284 299 312 309 305 305 331 329 332 329 325 328 322 319 331 330 321 333 338 338 337 339 335 332 329 324 322 317 308 299 291 275 272 272 272 270 270 264 242 236 239 243 238 238 240 237
128 144 138 128 147 149 148 149 147 153 154 147 143 132 128 129 134 134 130 124 120 125 131 150 177 181 161 57 64 22 20 358 35 31 7 335 317 306 286 297 308 308 296 305 327 329 331 329 330 330 332 325 324 335 336 339 344 342 341 340 338 336 335 333 332 330 327 318 311 295 287 277 269 266 263 247 237 222 221 233 234 230 232 234 236
157 159 158 163 162 152 152 144 144 144 145 142 134 129 136 138 137 138 137 125 127 133 133 149 161 155 128 107 69 59 25 8 349 28 79 240 274 295 294 299 314 315 316 326 324 332 333 333 328 332 331 319 333 338 337 342 342 344 346 345 343 342 337 336 338 340 331 323 331 341 329 307 287 281 273 259 234 210 219 225 228 234 228 223 229
142 140 155 138 148 144 146 142 137 141 139 139 135 139 144 139 138 141 137 127 128 128 138 142 155 143 141 112 84 67 36 31 27 3 343 333 244 273 303 314 317 333 337 341 345 341 340 336 332 340 336 336 337 335 336 342 345 347 350 351 351 348 343 342 345 345 337 337 345 345 350 349 351 352 329 287 237 224 229 221 226 224 228 232 227
150 143 155 161 162 150 127 131 137 139 141 140 142 146 144 142 146 143 140 136 134 132 134 143 142 147 141 125 120 100 63 55 39 20 357 337 332 326 297 318 343 344 343 343 346 348 347 347 346 339 336 341 340 341 343 346 348 351 354 355 355 352 350 351 350 349 340 359 350 349 346 345 352 348 358 349 335 304 239 229 231 218 220 227 228